This demonstration page uses our WeatherBlox Daily Observations layout. Learn more.

Left ArrowRight Arrow

36.19886, -115.1175

Hourly Observations for February 20, 2022

Temp ( °F °C ) Dew Point ( °F °C ) Humidity (%) Winds ( mph kmh ) Pressure ( in mb ) Visibility ( mi km ) Precip ( " mm )
12:53 am 00:53 Clear 49 9.4 19 -7.2 31 31 WNW 6 9 30.05 1018 10 16 0.00 0.00
1:53 am 01:53 Clear 48 8.9 19 -7.2 32 32 W 6 9 30.03 1017 10 16 0.00 0.00
2:53 am 02:53 Clear 48 8.9 19 -7.2 32 32 Calm 30.01 1016 10 16 0.00 0.00
3:53 am 03:53 Clear 45 7.2 18 -7.8 34 34 NW 3 6 30.00 1016 10 16 0.00 0.00
4:53 am 04:53 Clear 45 7.2 18 -7.8 34 34 W 6 9 30.00 1016 10 16 0.00 0.00
5:53 am 05:53 Clear 42 5.6 18 -7.8 38 38 WNW 5 7 30.01 1016 10 16 0.00 0.00
6:53 am 06:53 Sunny 43 6.1 19 -7.2 38 38 NW 5 7 30.01 1016 10 16 0.00 0.00
7:53 am 07:53 Sunny 50 10 18 -7.8 28 28 Calm 30.03 1017 10 16 0.00 0.00
8:53 am 08:53 Sunny 55 12.8 17 -8.3 22 22 Calm 30.02 1017 10 16 0.00 0.00
9:53 am 09:53 Sunny 58 14.4 15 -9.4 18 18 ESE 6 9 30.00 1016 10 16 0.00 0.00
10:53 am 10:53 Sunny 61 16.1 16 -8.9 17 17 ESE 7 11 29.98 1015 10 16 0.00 0.00
11:53 am 11:53 Sunny 64 17.8 17 -8.3 16 16 VRB 5 7 29.94 1014 10 16 0.00 0.00
12:53 pm 12:53 Sunny 67 19.4 17 -8.3 15 15 Calm 29.88 1012 10 16 0.00 0.00
1:53 pm 13:53 Sunny 68 20 17 -8.3 14 14 SE 7 11 29.84 1011 10 16 0.00 0.00
2:53 pm 14:53 Sunny 70 21.1 17 -8.3 13 13 ENE 8 13 29.81 1009 10 16 0.00 0.00
3:53 pm 15:53 Sunny 71 21.7 17 -8.3 13 13 ENE 7 11 29.79 1009 10 16 0.00 0.00
4:53 pm 16:53 Sunny 71 21.7 15 -9.4 12 12 W 5 7 29.78 1008 10 16 0.00 0.00
5:53 pm 17:53 Clear 70 21.1 11 -11.7 10 10 SSW 13 20 29.78 1008 10 16 0.00 0.00
6:53 pm 18:53 Clear 67 19.4 12 -11.1 12 12 S 8 13 29.78 1008 10 16 0.00 0.00
7:53 pm 19:53 Clear 67 19.4 14 -10 13 13 SSE 7 11 29.76 1008 10 16 0.00 0.00
8:53 pm 20:53 Clear 66 18.9 15 -9.4 14 14 S 12 19 29.74 1007 10 16 0.00 0.00
9:53 pm 21:53 Clear 67 19.4 17 -8.3 15 15 S 13 20 29.73 1007 10 16 0.00 0.00
10:53 pm 22:53 Clear 65 18.3 19 -7.2 17 17 SSW 12 19 29.71 1006 10 16 0.00 0.00
11:53 pm 23:53 Clear 63 17.2 22 -5.6 21 21 S 14 22 29.69 1006 10 16 0.00 0.00

Powered by AerisWeather